Time,TemperatureF,DewpointF,PressureIn,WindDirection,WindDirectionDegrees,WindSpeedMPH,WindSpeedGustMPH,Humidity,HourlyPrecipIn,Conditions,Clouds,dailyrainin,SoftwareType,DateUTC
2013-09-05 00:00:00,61.1,56.2,29.91,WSW,243,0.0,0.0,84,0.00,,---,0.00,VWS V14.01,2013-09-05 04:00:00,
2013-09-05 00:05:00,61.1,56.2,29.91,WSW,243,0.0,0.0,84,0.00,,---,0.00,VWS V14.01,2013-09-05 04:05:00,
2013-09-05 00:10:00,61.2,56.7,29.91,WSW,243,0.0,0.0,85,0.00,,---,0.00,VWS V14.01,2013-09-05 04:10:00,
2013-09-05 00:15:00,61.2,56.7,29.91,WSW,243,0.0,0.0,85,0.00,,---,0.00,VWS V14.01,2013-09-05 04:15:00,
2013-09-05 00:20:00,61.2,56.3,29.91,WSW,243,0.0,0.0,84,0.00,,---,0.00,VWS V14.01,2013-09-05 04:20:00,
2013-09-05 00:25:00,61.3,56.8,29.91,WSW,243,0.0,0.0,85,0.00,,---,0.00,VWS V14.01,2013-09-05 04:25:00,
2013-09-05 00:30:00,61.4,56.9,29.91,WSW,243,0.0,0.0,85,0.00,,---,0.00,VWS V14.01,2013-09-05 04:30:00,
2013-09-05 00:35:00,61.4,56.9,29.91,WSW,243,0.0,0.0,85,0.00,,---,0.00,VWS V14.01,2013-09-05 04:35:00,
2013-09-05 00:40:00,61.5,57.0,29.91,WSW,243,0.0,0.0,85,0.00,,---,0.00,VWS V14.01,2013-09-05 04:40:00,
2013-09-05 00:45:00,61.6,57.0,29.91,WSW,243,0.0,0.0,85,0.00,,---,0.00,VWS V14.01,2013-09-05 04:45:00,
2013-09-05 00:50:00,61.7,56.8,29.91,WSW,243,0.0,0.0,84,0.00,,---,0.00,VWS V14.01,2013-09-05 04:50:00,
2013-09-05 00:55:00,61.7,56.8,29.90,WSW,243,0.0,0.0,84,0.00,,---,0.00,VWS V14.01,2013-09-05 04:55:00,
2013-09-05 01:00:00,61.8,56.9,29.90,WSW,243,0.0,0.0,84,0.00,,---,0.00,VWS V14.01,2013-09-05 05:00:00,
2013-09-05 01:05:00,61.8,56.9,29.90,WSW,243,0.0,1.0,84,0.00,,---,0.00,VWS V14.01,2013-09-05 05:05:00,
2013-09-05 01:10:00,61.7,56.8,29.90,WSW,243,0.0,0.0,84,0.00,,---,0.00,VWS V14.01,2013-09-05 05:10:00,
2013-09-05 01:15:00,61.6,57.0,29.90,WSW,243,0.0,0.0,85,0.00,,---,0.00,VWS V14.01,2013-09-05 05:15:00,
2013-09-05 01:20:00,61.4,56.9,29.90,WSW,243,0.0,0.0,85,0.00,,---,0.00,VWS V14.01,2013-09-05 05:20:00,
2013-09-05 01:25:00,61.2,56.7,29.90,WSW,243,0.0,0.0,85,0.00,,---,0.00,VWS V14.01,2013-09-05 05:25:00,
2013-09-05 01:30:00,61.1,56.9,29.90,WSW,243,0.0,0.0,86,0.00,,---,0.00,VWS V14.01,2013-09-05 05:30:00,
2013-09-05 01:35:00,60.9,56.7,29.89,WSW,243,0.0,0.0,86,0.00,,---,0.00,VWS V14.01,2013-09-05 05:35:00,
2013-09-05 01:40:00,60.8,56.9,29.89,WSW,243,0.0,0.0,87,0.00,,---,0.00,VWS V14.01,2013-09-05 05:40:00,
2013-09-05 01:45:00,60.6,56.7,29.89,WSW,243,0.0,0.0,87,0.00,,---,0.00,VWS V14.01,2013-09-05 05:45:00,
2013-09-05 01:50:00,60.4,56.5,29.89,WSW,243,0.0,0.0,87,0.00,,---,0.00,VWS V14.01,2013-09-05 05:50:00,
2013-09-05 01:55:00,60.2,56.6,29.89,WSW,243,0.0,0.0,88,0.00,,---,0.00,VWS V14.01,2013-09-05 05:55:00,
2013-09-05 02:00:00,60.1,56.8,29.89,WSW,243,0.0,0.0,89,0.00,,---,0.00,VWS V14.01,2013-09-05 06:00:00,
2013-09-05 02:05:00,60.0,56.8,29.89,WSW,243,0.0,0.0,89,0.00,,---,0.00,VWS V14.01,2013-09-05 06:05:00,
2013-09-05 02:10:00,59.8,56.6,29.89,WSW,243,0.0,0.0,89,0.00,,---,0.00,VWS V14.01,2013-09-05 06:10:00,
2013-09-05 02:15:00,59.7,56.8,29.89,WSW,243,0.0,0.0,90,0.00,,---,0.00,VWS V14.01,2013-09-05 06:15:00,
2013-09-05 02:20:00,59.7,56.8,29.89,WSW,243,0.0,0.0,90,0.00,,---,0.00,VWS V14.01,2013-09-05 06:20:00,
2013-09-05 02:25:00,59.6,56.7,29.89,WSW,243,0.0,0.0,90,0.00,,---,0.00,VWS V14.01,2013-09-05 06:25:00,
2013-09-05 02:30:00,59.5,56.9,29.89,WSW,243,0.0,0.0,91,0.00,,---,0.00,VWS V14.01,2013-09-05 06:30:00,
2013-09-05 02:35:00,59.5,56.9,29.89,WSW,243,0.0,0.0,91,0.00,,---,0.00,VWS V14.01,2013-09-05 06:35:00,
2013-09-05 02:40:00,59.5,56.9,29.89,WSW,243,0.0,0.0,91,0.00,,---,0.00,VWS V14.01,2013-09-05 06:40:00,
2013-09-05 02:45:00,59.5,56.9,29.89,WSW,243,0.0,0.0,91,0.00,,---,0.00,VWS V14.01,2013-09-05 06:45:00,
2013-09-05 02:50:00,59.5,57.2,29.89,WSW,243,0.0,0.0,92,0.00,,---,0.00,VWS V14.01,2013-09-05 06:50:00,
2013-09-05 02:55:00,59.6,57.3,29.89,WSW,243,0.0,0.0,92,0.00,,---,0.00,VWS V14.01,2013-09-05 06:55:00,
2013-09-05 03:00:00,59.8,57.5,29.89,WSW,243,0.0,0.0,92,0.00,,---,0.00,VWS V14.01,2013-09-05 07:00:00,
2013-09-05 03:05:00,60.0,57.7,29.88,WSW,243,0.0,0.0,92,0.00,,---,0.00,VWS V14.01,2013-09-05 07:05:00,
2013-09-05 03:10:00,60.1,57.8,29.89,WSW,243,0.0,0.0,92,0.00,,---,0.00,VWS V14.01,2013-09-05 07:10:00,
2013-09-05 03:15:00,60.3,58.0,29.88,WSW,243,0.0,0.0,92,0.00,,---,0.00,VWS V14.01,2013-09-05 07:15:00,
2013-09-05 03:20:00,60.4,57.8,29.88,WSW,243,0.0,0.0,91,0.00,,---,0.00,VWS V14.01,2013-09-05 07:20:00,
2013-09-05 03:25:00,60.7,58.1,29.88,WSW,242,0.0,1.0,91,0.00,,---,0.00,VWS V14.01,2013-09-05 07:25:00,
2013-09-05 03:30:00,60.9,58.0,29.88,WSW,242,0.0,0.0,90,0.00,,---,0.00,VWS V14.01,2013-09-05 07:30:00,
2013-09-05 03:35:00,61.1,58.2,29.88,WSW,242,0.0,0.0,90,0.00,,---,0.00,VWS V14.01,2013-09-05 07:35:00,
2013-09-05 03:40:00,61.3,58.3,29.88,WSW,242,0.0,1.0,90,0.00,,---,0.00,VWS V14.01,2013-09-05 07:40:00,
2013-09-05 03:45:00,61.5,58.2,29.88,WSW,242,0.0,1.0,89,0.00,,---,0.00,VWS V14.01,2013-09-05 07:45:00,
2013-09-05 03:50:00,61.8,58.2,29.88,WSW,242,0.0,2.0,88,0.00,,---,0.00,VWS V14.01,2013-09-05 07:50:00,
2013-09-05 03:55:00,62.0,58.4,29.88,WSW,242,0.0,1.0,88,0.00,,---,0.00,VWS V14.01,2013-09-05 07:55:00,
2013-09-05 04:00:00,62.1,58.5,29.88,WSW,242,0.0,0.0,88,0.00,,---,0.00,VWS V14.01,2013-09-05 08:00:00,
2013-09-05 04:05:00,62.1,58.5,29.88,SSE,160,0.0,0.0,88,0.00,,---,0.00,VWS V14.01,2013-09-05 08:05:00,
2013-09-05 04:10:00,62.2,58.6,29.87,SSE,160,0.0,1.0,88,0.00,,---,0.00,VWS V14.01,2013-09-05 08:10:00,
2013-09-05 04:15:00,62.3,58.4,29.87,SSE,160,0.0,1.0,87,0.00,,---,0.00,VWS V14.01,2013-09-05 08:15:00,
2013-09-05 04:20:00,62.5,58.6,29.87,West,272,0.0,2.0,87,0.00,,---,0.00,VWS V14.01,2013-09-05 08:20:00,
2013-09-05 04:25:00,62.8,58.9,29.87,SSE,152,0.0,1.0,87,0.00,,---,0.00,VWS V14.01,2013-09-05 08:25:00,
2013-09-05 04:30:00,63.0,58.8,29.87,SSE,152,0.0,1.0,86,0.00,,---,0.00,VWS V14.01,2013-09-05 08:30:00,
2013-09-05 04:35:00,63.1,58.8,29.87,SSE,152,0.0,0.0,86,0.00,,---,0.00,VWS V14.01,2013-09-05 08:35:00,
2013-09-05 04:40:00,63.1,58.8,29.87,SSE,152,0.0,0.0,86,0.00,,---,0.00,VWS V14.01,2013-09-05 08:40:00,
2013-09-05 04:45:00,63.1,58.8,29.87,SSE,152,0.0,1.0,86,0.00,,---,0.00,VWS V14.01,2013-09-05 08:45:00,
2013-09-05 04:50:00,63.1,58.5,29.87,SSE,152,0.0,0.0,85,0.00,,---,0.00,VWS V14.01,2013-09-05 08:50:00,
2013-09-05 04:55:00,63.1,58.5,29.87,SSE,152,0.0,0.0,85,0.00,,---,0.00,VWS V14.01,2013-09-05 08:55:00,
2013-09-05 05:00:00,63.1,58.5,29.87,SSE,152,0.0,0.0,85,0.00,,---,0.00,VWS V14.01,2013-09-05 09:00:00,
2013-09-05 05:05:00,63.2,58.6,29.88,SW,223,0.0,1.0,85,0.00,,---,0.00,VWS V14.01,2013-09-05 09:05:00,
2013-09-05 05:10:00,63.4,58.8,29.89,SW,219,0.0,3.0,85,0.00,,---,0.00,VWS V14.01,2013-09-05 09:10:00,
2013-09-05 05:15:00,63.7,58.8,29.89,WNW,286,0.0,1.0,84,0.00,,---,0.00,VWS V14.01,2013-09-05 09:15:00,
2013-09-05 05:20:00,63.9,59.0,29.88,SW,231,0.0,1.0,84,0.00,,---,0.00,VWS V14.01,2013-09-05 09:20:00,
2013-09-05 05:25:00,64.1,58.8,29.88,SW,231,0.0,1.0,83,0.00,,---,0.00,VWS V14.01,2013-09-05 09:25:00,
2013-09-05 05:30:00,64.2,58.9,29.89,SSW,204,0.0,1.0,83,0.00,,---,0.00,VWS V14.01,2013-09-05 09:30:00,
2013-09-05 05:35:00,64.3,59.0,29.89,SSW,204,0.0,1.0,83,0.00,,---,0.00,VWS V14.01,2013-09-05 09:35:00,
2013-09-05 05:40:00,64.4,58.8,29.88,South,187,0.0,1.0,82,0.00,,---,0.00,VWS V14.01,2013-09-05 09:40:00,
2013-09-05 05:45:00,64.4,58.8,29.88,SSE,162,0.0,1.0,82,0.00,,---,0.00,VWS V14.01,2013-09-05 09:45:00,
2013-09-05 05:50:00,64.4,58.8,29.88,SSE,162,0.0,0.0,82,0.00,,---,0.00,VWS V14.01,2013-09-05 09:50:00,
2013-09-05 05:55:00,64.4,58.8,29.88,WSW,243,0.0,2.0,82,0.00,,---,0.00,VWS V14.01,2013-09-05 09:55:00,
2013-09-05 06:00:00,64.4,58.8,29.88,WSW,243,0.0,0.0,82,0.00,,---,0.00,VWS V14.01,2013-09-05 10:00:00,
2013-09-05 06:05:00,64.3,59.0,29.89,WSW,243,0.0,2.0,83,0.00,,---,0.00,VWS V14.01,2013-09-05 10:05:00,
2013-09-05 06:10:00,64.1,58.8,29.89,WSW,256,0.0,1.0,83,0.00,,---,0.00,VWS V14.01,2013-09-05 10:10:00,
2013-09-05 06:15:00,64.1,58.8,29.89,WSW,256,0.0,1.0,83,0.00,,---,0.00,VWS V14.01,2013-09-05 10:15:00,
2013-09-05 06:20:00,64.0,58.7,29.89,WSW,256,0.0,0.0,83,0.00,,---,0.00,VWS V14.01,2013-09-05 10:20:00,
2013-09-05 06:25:00,63.9,59.0,29.90,WSW,256,0.0,0.0,84,0.00,,---,0.00,VWS V14.01,2013-09-05 10:25:00,
2013-09-05 06:30:00,63.9,59.0,29.90,WSW,256,0.0,0.0,84,0.00,,---,0.00,VWS V14.01,2013-09-05 10:30:00,
2013-09-05 06:35:00,63.8,58.9,29.89,WSW,256,0.0,0.0,84,0.00,,---,0.00,VWS V14.01,2013-09-05 10:35:00,
2013-09-05 06:40:00,63.8,59.2,29.89,WSW,256,0.0,0.0,85,0.00,,---,0.00,VWS V14.01,2013-09-05 10:40:00,
2013-09-05 06:45:00,63.8,58.9,29.89,WSW,256,0.0,0.0,84,0.00,,---,0.00,VWS V14.01,2013-09-05 10:45:00,
2013-09-05 06:50:00,63.8,58.9,29.89,WSW,256,0.0,1.0,84,0.00,,---,0.00,VWS V14.01,2013-09-05 10:50:00,
2013-09-05 06:55:00,63.7,59.1,29.90,WSW,256,0.0,0.0,85,0.00,,---,0.00,VWS V14.01,2013-09-05 10:55:00,
2013-09-05 07:00:00,63.7,59.1,29.90,WSW,256,0.0,0.0,85,0.00,,---,0.00,VWS V14.01,2013-09-05 11:00:00,
2013-09-05 07:05:00,63.7,59.1,29.90,WSW,256,0.0,0.0,85,0.00,,---,0.00,VWS V14.01,2013-09-05 11:05:00,
2013-09-05 07:10:00,63.8,58.9,29.90,WNW,298,0.0,1.0,84,0.00,,---,0.00,VWS V14.01,2013-09-05 11:10:00,
2013-09-05 07:15:00,64.0,58.7,29.90,SW,226,0.0,1.0,83,0.00,,---,0.00,VWS V14.01,2013-09-05 11:15:00,
2013-09-05 07:20:00,64.2,58.9,29.90,SW,226,0.0,1.0,83,0.00,,---,0.00,VWS V14.01,2013-09-05 11:20:00,
2013-09-05 07:25:00,64.4,59.1,29.90,WSW,242,0.0,2.0,83,0.00,,---,0.00,VWS V14.01,2013-09-05 11:25:00,
2013-09-05 07:30:00,64.5,59.2,29.91,WSW,242,0.0,0.0,83,0.00,,---,0.00,VWS V14.01,2013-09-05 11:30:00,
2013-09-05 07:35:00,64.6,59.3,29.91,WSW,242,0.0,1.0,83,0.00,,---,0.00,VWS V14.01,2013-09-05 11:35:00,
2013-09-05 07:40:00,64.7,59.1,29.91,WSW,242,0.0,1.0,82,0.00,,---,0.00,VWS V14.01,2013-09-05 11:40:00,
2013-09-05 07:45:00,64.8,59.5,29.92,WSW,242,0.0,0.0,83,0.00,,---,0.00,VWS V14.01,2013-09-05 11:45:00,
2013-09-05 07:50:00,64.8,59.9,29.92,WSW,242,0.0,1.0,84,0.00,,---,0.00,VWS V14.01,2013-09-05 11:50:00,
2013-09-05 07:55:00,64.7,60.1,29.92,WSW,247,0.0,1.0,85,0.00,,---,0.00,VWS V14.01,2013-09-05 11:55:00,
2013-09-05 08:00:00,64.6,60.3,29.92,WSW,247,0.0,1.0,86,0.00,,---,0.00,VWS V14.01,2013-09-05 12:00:00,
2013-09-05 08:05:00,64.4,60.5,29.92,WSW,247,0.0,0.0,87,0.01,,---,0.01,VWS V14.01,2013-09-05 12:05:00,
2013-09-05 08:10:00,64.3,60.7,29.92,WSW,247,0.0,0.0,88,0.01,,---,0.01,VWS V14.01,2013-09-05 12:10:00,
2013-09-05 08:15:00,64.1,60.8,29.92,WSW,247,0.0,0.0,89,0.01,,---,0.01,VWS V14.01,2013-09-05 12:15:00,
2013-09-05 08:20:00,64.0,61.0,29.93,WSW,247,0.0,0.0,90,0.02,,---,0.02,VWS V14.01,2013-09-05 12:20:00,
2013-09-05 08:25:00,63.8,60.8,29.93,WSW,247,0.0,0.0,90,0.02,,---,0.02,VWS V14.01,2013-09-05 12:25:00,
2013-09-05 08:30:00,63.7,61.0,29.93,WSW,247,0.0,0.0,91,0.02,,---,0.02,VWS V14.01,2013-09-05 12:30:00,
2013-09-05 08:35:00,63.7,61.3,29.93,WSW,247,0.0,0.0,92,0.02,,---,0.02,VWS V14.01,2013-09-05 12:35:00,
2013-09-05 08:40:00,63.6,61.2,29.93,WSW,247,0.0,0.0,92,0.02,,---,0.02,VWS V14.01,2013-09-05 12:40:00,
2013-09-05 08:45:00,63.5,61.1,29.94,WSW,247,0.0,1.0,92,0.02,,---,0.02,VWS V14.01,2013-09-05 12:45:00,
2013-09-05 08:50:00,63.4,61.0,29.94,WSW,247,0.0,0.0,92,0.03,,---,0.03,VWS V14.01,2013-09-05 12:50:00,
2013-09-05 08:55:00,63.3,61.2,29.94,WSW,247,0.0,1.0,93,0.04,,---,0.04,VWS V14.01,2013-09-05 12:55:00,
2013-09-05 09:00:00,63.2,61.2,29.94,WSW,247,0.0,1.0,93,0.04,,---,0.04,VWS V14.01,2013-09-05 13:00:00,
2013-09-05 09:05:00,63.1,61.0,29.94,WSW,247,0.0,2.0,93,0.04,,---,0.04,VWS V14.01,2013-09-05 13:05:00,
2013-09-05 09:10:00,63.1,61.0,29.96,WSW,247,0.0,2.0,93,0.03,,---,0.04,VWS V14.01,2013-09-05 13:10:00,
2013-09-05 09:15:00,62.9,60.8,29.96,WSW,247,0.0,1.0,93,0.03,,---,0.04,VWS V14.01,2013-09-05 13:15:00,
2013-09-05 09:20:00,62.9,60.8,29.95,ESE,110,0.0,1.0,93,0.03,,---,0.04,VWS V14.01,2013-09-05 13:20:00,
2013-09-05 09:25:00,62.9,60.8,29.96,ESE,109,0.0,1.0,93,0.02,,---,0.04,VWS V14.01,2013-09-05 13:25:00,
2013-09-05 09:30:00,62.9,60.8,29.96,ESE,109,0.0,1.0,93,0.02,,---,0.04,VWS V14.01,2013-09-05 13:30:00,
2013-09-05 09:35:00,62.9,60.8,29.96,NNE,30,0.0,2.0,93,0.02,,---,0.04,VWS V14.01,2013-09-05 13:35:00,
2013-09-05 09:40:00,63.1,61.3,29.96,NNE,30,0.0,1.0,94,0.02,,---,0.04,VWS V14.01,2013-09-05 13:40:00,
2013-09-05 09:45:00,63.2,61.2,29.97,East,79,0.0,2.0,93,0.02,,---,0.04,VWS V14.01,2013-09-05 13:45:00,
2013-09-05 09:50:00,63.2,61.2,29.97,NNE,25,0.0,2.0,93,0.02,,---,0.04,VWS V14.01,2013-09-05 13:50:00,
2013-09-05 09:55:00,63.1,60.7,29.97,SW,218,1.0,3.0,92,0.01,,---,0.04,VWS V14.01,2013-09-05 13:55:00,
2013-09-05 10:00:00,63.0,60.6,29.97,ENE,73,0.0,4.0,92,0.00,,---,0.04,VWS V14.01,2013-09-05 14:00:00,
2013-09-05 10:05:00,62.9,60.2,29.97,ENE,62,0.0,3.0,91,0.00,,---,0.04,VWS V14.01,2013-09-05 14:05:00,
2013-09-05 10:10:00,62.7,60.0,29.97,ENE,67,0.0,4.0,91,0.00,,---,0.04,VWS V14.01,2013-09-05 14:10:00,
2013-09-05 10:15:00,62.8,60.1,29.97,WNW,290,1.0,3.0,91,0.00,,---,0.04,VWS V14.01,2013-09-05 14:15:00,
2013-09-05 10:20:00,63.0,60.3,29.97,East,90,0.0,1.0,91,0.00,,---,0.04,VWS V14.01,2013-09-05 14:20:00,
2013-09-05 10:25:00,63.4,60.7,29.96,WNW,302,0.0,3.0,91,0.00,,---,0.04,VWS V14.01,2013-09-05 14:25:00,
2013-09-05 10:30:00,63.7,60.4,29.97,NE,44,0.0,3.0,89,0.00,,---,0.04,VWS V14.01,2013-09-05 14:30:00,
2013-09-05 10:35:00,63.9,60.9,29.97,NE,45,0.0,1.0,90,0.00,,---,0.04,VWS V14.01,2013-09-05 14:35:00,
2013-09-05 10:40:00,64.2,60.6,29.97,North,11,0.0,5.0,88,0.00,,---,0.04,VWS V14.01,2013-09-05 14:40:00,
2013-09-05 10:45:00,64.5,60.9,29.96,East,87,0.0,4.0,88,0.00,,---,0.04,VWS V14.01,2013-09-05 14:45:00,
2013-09-05 10:50:00,64.8,60.8,29.96,SW,231,0.0,2.0,87,0.00,,---,0.04,VWS V14.01,2013-09-05 14:50:00,
2013-09-05 10:55:00,64.7,59.8,29.96,SSE,165,0.0,3.0,84,0.00,,---,0.04,VWS V14.01,2013-09-05 14:55:00,
2013-09-05 11:00:00,64.7,60.1,29.96,WSW,254,0.0,3.0,85,0.00,,---,0.04,VWS V14.01,2013-09-05 15:00:00,
2013-09-05 11:05:00,64.7,60.4,29.97,SE,146,1.0,1.0,86,0.00,,---,0.04,VWS V14.01,2013-09-05 15:05:00,
2013-09-05 11:10:00,64.8,60.5,29.97,WSW,254,0.0,3.0,86,0.00,,---,0.04,VWS V14.01,2013-09-05 15:10:00,
2013-09-05 11:15:00,65.0,60.4,29.97,East,92,4.0,4.0,85,0.00,,---,0.04,VWS V14.01,2013-09-05 15:15:00,
2013-09-05 11:20:00,65.2,60.2,29.98,North,1,0.0,5.0,84,0.00,,---,0.04,VWS V14.01,2013-09-05 15:20:00,
2013-09-05 11:25:00,65.3,60.3,29.98,NE,48,0.0,4.0,84,0.00,,---,0.04,VWS V14.01,2013-09-05 15:25:00,
2013-09-05 11:30:00,65.4,60.1,29.98,WSW,243,0.0,5.0,83,0.00,,---,0.04,VWS V14.01,2013-09-05 15:30:00,
2013-09-05 11:35:00,65.5,59.9,29.98,SSW,200,0.0,4.0,82,0.00,,---,0.04,VWS V14.01,2013-09-05 15:35:00,
2013-09-05 11:40:00,65.7,60.1,29.98,WSW,252,1.0,6.0,82,0.00,,---,0.04,VWS V14.01,2013-09-05 15:40:00,
2013-09-05 11:45:00,66.2,61.2,29.98,SSE,156,0.0,6.0,84,0.00,,---,0.04,VWS V14.01,2013-09-05 15:45:00,
2013-09-05 11:50:00,66.7,60.3,29.98,NE,53,1.0,4.0,80,0.00,,---,0.04,VWS V14.01,2013-09-05 15:50:00,
2013-09-05 11:55:00,66.9,59.8,29.98,West,272,1.0,5.0,78,0.00,,---,0.04,VWS V14.01,2013-09-05 15:55:00,
2013-09-05 12:00:00,67.2,60.8,29.98,SSW,213,2.0,4.0,80,0.00,,---,0.04,VWS V14.01,2013-09-05 16:00:00,
2013-09-05 12:05:00,67.6,59.8,29.98,NW,318,0.0,3.0,76,0.00,,---,0.04,VWS V14.01,2013-09-05 16:05:00,
2013-09-05 12:10:00,67.8,59.2,29.98,ENE,62,0.0,5.0,74,0.00,,---,0.04,VWS V14.01,2013-09-05 16:10:00,
2013-09-05 12:15:00,67.8,59.6,29.98,SE,125,3.0,6.0,75,0.00,,---,0.04,VWS V14.01,2013-09-05 16:15:00,
2013-09-05 12:20:00,67.6,58.3,29.98,WSW,244,4.0,7.0,72,0.00,,---,0.04,VWS V14.01,2013-09-05 16:20:00,
2013-09-05 12:25:00,67.8,58.8,29.98,West,262,4.0,6.0,73,0.00,,---,0.04,VWS V14.01,2013-09-05 16:25:00,
2013-09-05 12:30:00,67.7,57.6,29.98,WSW,237,4.0,9.0,70,0.00,,---,0.04,VWS V14.01,2013-09-05 16:30:00,
2013-09-05 12:35:00,68.0,58.7,29.98,NNE,19,1.0,4.0,72,0.00,,---,0.04,VWS V14.01,2013-09-05 16:35:00,
2013-09-05 12:40:00,68.5,57.9,29.98,NNE,23,0.0,4.0,69,0.00,,---,0.04,VWS V14.01,2013-09-05 16:40:00,
2013-09-05 12:45:00,68.7,57.7,29.98,WNW,292,4.0,7.0,68,0.00,,---,0.04,VWS V14.01,2013-09-05 16:45:00,
2013-09-05 12:50:00,68.7,57.3,29.98,SW,234,5.0,9.0,67,0.00,,---,0.04,VWS V14.01,2013-09-05 16:50:00,
2013-09-05 12:55:00,68.9,56.7,29.98,NE,50,2.0,6.0,65,0.00,,---,0.04,VWS V14.01,2013-09-05 16:55:00,
2013-09-05 13:00:00,69.5,55.9,29.98,ENE,63,1.0,6.0,62,0.00,,---,0.04,VWS V14.01,2013-09-05 17:00:00,
2013-09-05 13:05:00,69.5,55.5,29.98,NW,312,1.0,6.0,61,0.00,,---,0.04,VWS V14.01,2013-09-05 17:05:00,
2013-09-05 13:10:00,69.0,55.0,29.98,NNE,25,5.0,6.0,61,0.00,,---,0.04,VWS V14.01,2013-09-05 17:10:00,
2013-09-05 13:15:00,68.6,55.5,29.98,NNE,13,0.0,6.0,63,0.00,,---,0.04,VWS V14.01,2013-09-05 17:15:00,
2013-09-05 13:20:00,68.4,55.3,29.98,North,4,0.0,9.0,63,0.00,,---,0.04,VWS V14.01,2013-09-05 17:20:00,
2013-09-05 13:25:00,68.3,52.5,29.98,NE,54,2.0,6.0,57,0.00,,---,0.04,VWS V14.01,2013-09-05 17:25:00,
2013-09-05 13:30:00,68.2,49.4,29.98,ENE,73,0.0,5.0,51,0.00,,---,0.04,VWS V14.01,2013-09-05 17:30:00,
2013-09-05 13:35:00,68.1,47.7,29.99,SW,231,2.0,3.0,48,0.00,,---,0.04,VWS V14.01,2013-09-05 17:35:00,
2013-09-05 13:40:00,68.0,48.2,29.99,NNW,341,0.0,2.0,49,0.00,,---,0.04,VWS V14.01,2013-09-05 17:40:00,
2013-09-05 13:45:00,67.9,47.0,29.99,NNE,19,2.0,4.0,47,0.00,,---,0.04,VWS V14.01,2013-09-05 17:45:00,
2013-09-05 13:50:00,68.0,48.2,29.98,NW,324,1.0,2.0,49,0.00,,---,0.04,VWS V14.01,2013-09-05 17:50:00,
2013-09-05 13:55:00,68.3,47.3,29.98,NNE,21,1.0,4.0,47,0.00,,---,0.04,VWS V14.01,2013-09-05 17:55:00,
2013-09-05 14:00:00,68.4,48.5,29.98,SSW,213,0.0,1.0,49,0.00,,---,0.04,VWS V14.01,2013-09-05 18:00:00,
2013-09-05 14:05:00,68.4,48.5,29.98,South,172,0.0,2.0,49,0.00,,---,0.04,VWS V14.01,2013-09-05 18:05:00,
2013-09-05 14:10:00,68.5,48.6,29.98,WNW,301,0.0,3.0,49,0.00,,---,0.04,VWS V14.01,2013-09-05 18:10:00,
2013-09-05 14:15:00,68.8,48.3,29.98,SW,233,0.0,1.0,48,0.00,,---,0.04,VWS V14.01,2013-09-05 18:15:00,
2013-09-05 14:20:00,69.3,52.0,29.98,SW,234,1.0,2.0,54,0.00,,---,0.04,VWS V14.01,2013-09-05 18:20:00,
2013-09-05 14:25:00,69.7,49.7,29.99,SSE,158,0.0,2.0,49,0.00,,---,0.04,VWS V14.01,2013-09-05 18:25:00,
2013-09-05 14:30:00,70.1,47.8,29.99,WNW,295,3.0,3.0,45,0.00,,---,0.04,VWS V14.01,2013-09-05 18:30:00,
2013-09-05 14:35:00,70.0,47.1,29.99,SW,216,0.0,5.0,44,0.00,,---,0.04,VWS V14.01,2013-09-05 18:35:00,
2013-09-05 14:40:00,69.8,48.1,29.99,East,100,1.0,3.0,46,0.00,,---,0.04,VWS V14.01,2013-09-05 18:40:00,
2013-09-05 14:45:00,69.6,48.5,29.99,SSW,194,1.0,5.0,47,0.00,,---,0.04,VWS V14.01,2013-09-05 18:45:00,
2013-09-05 14:50:00,69.5,48.4,29.99,WNW,295,1.0,4.0,47,0.00,,---,0.04,VWS V14.01,2013-09-05 18:50:00,
2013-09-05 14:55:00,69.8,49.2,29.99,ENE,67,1.0,4.0,48,0.00,,---,0.04,VWS V14.01,2013-09-05 18:55:00,
2013-09-05 15:00:00,69.9,48.8,29.99,North,2,0.0,5.0,47,0.00,,---,0.04,VWS V14.01,2013-09-05 19:00:00,
2013-09-05 15:05:00,69.5,47.8,29.99,North,358,0.0,5.0,46,0.00,,---,0.04,VWS V14.01,2013-09-05 19:05:00,
2013-09-05 15:10:00,69.1,46.9,30.00,ESE,119,0.0,3.0,45,0.00,,---,0.04,VWS V14.01,2013-09-05 19:10:00,
2013-09-05 15:15:00,68.8,46.6,30.00,NNE,30,0.0,3.0,45,0.00,,---,0.04,VWS V14.01,2013-09-05 19:15:00,
2013-09-05 15:20:00,68.5,46.9,30.00,WSW,254,0.0,7.0,46,0.00,,---,0.04,VWS V14.01,2013-09-05 19:20:00,
2013-09-05 15:25:00,68.4,48.0,30.00,West,262,3.0,4.0,48,0.00,,---,0.04,VWS V14.01,2013-09-05 19:25:00,
2013-09-05 15:30:00,68.3,48.4,30.00,West,275,3.0,5.0,49,0.01,,---,0.05,VWS V14.01,2013-09-05 19:30:00,
2013-09-05 15:35:00,68.3,47.9,30.01,NNW,327,0.0,3.0,48,0.01,,---,0.05,VWS V14.01,2013-09-05 19:35:00,
2013-09-05 15:40:00,68.4,48.0,30.00,NW,326,0.0,2.0,48,0.01,,---,0.05,VWS V14.01,2013-09-05 19:40:00,
2013-09-05 15:45:00,68.3,47.9,30.01,NW,314,0.0,2.0,48,0.01,,---,0.05,VWS V14.01,2013-09-05 19:45:00,
2013-09-05 15:50:00,68.5,47.5,30.01,NW,310,0.0,3.0,47,0.01,,---,0.05,VWS V14.01,2013-09-05 19:50:00,
2013-09-05 15:55:00,69.0,50.7,30.01,SE,136,2.0,2.0,52,0.01,,---,0.05,VWS V14.01,2013-09-05 19:55:00,
2013-09-05 16:00:00,69.5,47.8,30.00,West,275,1.0,4.0,46,0.01,,---,0.05,VWS V14.01,2013-09-05 20:00:00,
2013-09-05 16:05:00,69.9,46.4,30.00,West,260,0.0,2.0,43,0.01,,---,0.05,VWS V14.01,2013-09-05 20:05:00,
2013-09-05 16:10:00,70.3,47.4,30.00,West,260,0.0,2.0,44,0.01,,---,0.05,VWS V14.01,2013-09-05 20:10:00,
2013-09-05 16:15:00,70.4,46.9,30.00,WNW,295,0.0,2.0,43,0.01,,---,0.05,VWS V14.01,2013-09-05 20:15:00,
2013-09-05 16:20:00,70.6,47.0,30.00,NE,52,2.0,5.0,43,0.01,,---,0.05,VWS V14.01,2013-09-05 20:20:00,
2013-09-05 16:25:00,70.3,48.0,30.00,WNW,298,1.0,4.0,45,0.01,,---,0.05,VWS V14.01,2013-09-05 20:25:00,
2013-09-05 16:30:00,69.7,46.8,30.00,NNE,19,1.0,2.0,44,0.01,,---,0.05,VWS V14.01,2013-09-05 20:30:00,
2013-09-05 16:35:00,68.8,47.2,30.00,SSW,211,0.0,4.0,46,0.00,,---,0.05,VWS V14.01,2013-09-05 20:35:00,
2013-09-05 16:40:00,68.1,47.1,30.01,SE,144,2.0,4.0,47,0.00,,---,0.05,VWS V14.01,2013-09-05 20:40:00,
2013-09-05 16:45:00,68.4,47.4,30.01,WNW,289,2.0,2.0,47,0.00,,---,0.05,VWS V14.01,2013-09-05 20:45:00,
2013-09-05 16:50:00,68.9,47.3,30.00,WSW,258,0.0,5.0,46,0.00,,---,0.05,VWS V14.01,2013-09-05 20:50:00,
2013-09-05 16:55:00,69.1,50.8,30.00,NW,316,0.0,2.0,52,0.00,,---,0.05,VWS V14.01,2013-09-05 20:55:00,
2013-09-05 17:00:00,69.5,53.6,30.00,SW,215,0.0,2.0,57,0.00,,---,0.05,VWS V14.01,2013-09-05 21:00:00,
2013-09-05 17:05:00,69.4,48.3,30.01,ESE,121,0.0,4.0,47,0.00,,---,0.05,VWS V14.01,2013-09-05 21:05:00,
2013-09-05 17:10:00,68.9,55.8,30.01,SE,127,0.0,1.0,63,0.00,,---,0.05,VWS V14.01,2013-09-05 21:10:00,
2013-09-05 17:15:00,68.0,56.2,30.01,NNE,21,0.0,2.0,66,0.00,,---,0.05,VWS V14.01,2013-09-05 21:15:00,
2013-09-05 17:20:00,67.4,56.1,30.01,NNE,21,0.0,1.0,67,0.00,,---,0.05,VWS V14.01,2013-09-05 21:20:00,
2013-09-05 17:25:00,67.2,55.9,30.02,ENE,67,1.0,2.0,67,0.00,,---,0.05,VWS V14.01,2013-09-05 21:25:00,
2013-09-05 17:30:00,67.0,56.5,30.02,ENE,68,1.0,2.0,69,0.00,,---,0.05,VWS V14.01,2013-09-05 21:30:00,
2013-09-05 17:35:00,66.7,55.8,30.02,SE,138,0.0,2.0,68,0.00,,---,0.05,VWS V14.01,2013-09-05 21:35:00,
2013-09-05 17:40:00,66.3,56.2,30.02,SE,138,0.0,1.0,70,0.00,,---,0.05,VWS V14.01,2013-09-05 21:40:00,
2013-09-05 17:45:00,65.9,55.8,30.02,SSE,151,0.0,5.0,70,0.00,,---,0.05,VWS V14.01,2013-09-05 21:45:00,
2013-09-05 17:50:00,65.5,55.9,30.02,SSE,151,0.0,1.0,71,0.00,,---,0.05,VWS V14.01,2013-09-05 21:50:00,
2013-09-05 17:55:00,65.2,55.6,30.03,NNE,30,0.0,3.0,71,0.00,,---,0.05,VWS V14.01,2013-09-05 21:55:00,
2013-09-05 18:00:00,64.8,55.6,30.03,NNE,25,0.0,2.0,72,0.00,,---,0.05,VWS V14.01,2013-09-05 22:00:00,
2013-09-05 18:05:00,64.5,55.7,30.03,NW,317,0.0,1.0,73,0.00,,---,0.05,VWS V14.01,2013-09-05 22:05:00,
2013-09-05 18:10:00,64.3,55.5,30.03,NW,317,0.0,0.0,73,0.00,,---,0.05,VWS V14.01,2013-09-05 22:10:00,
2013-09-05 18:15:00,64.0,55.2,30.03,NW,317,0.0,0.0,73,0.00,,---,0.05,VWS V14.01,2013-09-05 22:15:00,
2013-09-05 18:20:00,63.7,55.6,30.03,NW,317,0.0,0.0,75,0.00,,---,0.05,VWS V14.01,2013-09-05 22:20:00,
2013-09-05 18:25:00,63.4,55.3,30.04,NW,318,2.0,2.0,75,0.00,,---,0.05,VWS V14.01,2013-09-05 22:25:00,
2013-09-05 18:30:00,63.2,55.2,30.04,NW,318,0.0,2.0,75,0.00,,---,0.05,VWS V14.01,2013-09-05 22:30:00,
2013-09-05 18:35:00,63.0,55.3,30.04,NW,318,0.0,1.0,76,0.00,,---,0.05,VWS V14.01,2013-09-05 22:35:00,
2013-09-05 18:40:00,62.7,55.4,30.05,NW,318,0.0,3.0,77,0.00,,---,0.05,VWS V14.01,2013-09-05 22:40:00,
2013-09-05 18:45:00,62.6,56.0,30.05,WSW,254,0.0,1.0,79,0.00,,---,0.05,VWS V14.01,2013-09-05 22:45:00,
2013-09-05 18:50:00,62.4,54.8,30.05,WSW,257,0.0,3.0,76,0.00,,---,0.05,VWS V14.01,2013-09-05 22:50:00,
2013-09-05 18:55:00,62.3,54.7,30.05,WSW,257,0.0,1.0,76,0.00,,---,0.05,VWS V14.01,2013-09-05 22:55:00,
2013-09-05 19:00:00,62.1,54.5,30.05,WSW,257,0.0,0.0,76,0.00,,---,0.05,VWS V14.01,2013-09-05 23:00:00,
2013-09-05 19:05:00,62.0,54.7,30.05,WSW,257,0.0,1.0,77,0.00,,---,0.05,VWS V14.01,2013-09-05 23:05:00,
2013-09-05 19:10:00,61.7,54.8,30.05,WSW,257,0.0,0.0,78,0.00,,---,0.05,VWS V14.01,2013-09-05 23:10:00,
2013-09-05 19:15:00,61.5,54.6,30.05,WSW,257,0.0,0.0,78,0.00,,---,0.05,VWS V14.01,2013-09-05 23:15:00,
2013-09-05 19:20:00,61.3,54.7,30.05,WSW,257,0.0,0.0,79,0.00,,---,0.05,VWS V14.01,2013-09-05 23:20:00,
2013-09-05 19:25:00,60.9,54.3,30.06,WSW,257,0.0,0.0,79,0.00,,---,0.05,VWS V14.01,2013-09-05 23:25:00,
2013-09-05 19:30:00,60.7,54.5,30.06,WSW,257,0.0,0.0,80,0.00,,---,0.05,VWS V14.01,2013-09-05 23:30:00,
2013-09-05 19:35:00,60.3,54.1,30.07,WSW,257,0.0,0.0,80,0.00,,---,0.05,VWS V14.01,2013-09-05 23:35:00,
2013-09-05 19:40:00,59.8,54.0,30.07,WSW,257,0.0,0.0,81,0.00,,---,0.05,VWS V14.01,2013-09-05 23:40:00,
2013-09-05 19:45:00,59.5,54.0,30.07,WSW,257,0.0,0.0,82,0.00,,---,0.05,VWS V14.01,2013-09-05 23:45:00,
2013-09-05 19:50:00,59.0,53.5,30.07,WSW,256,0.0,0.0,82,0.00,,---,0.05,VWS V14.01,2013-09-05 23:50:00,
2013-09-05 19:55:00,58.6,53.5,30.07,WSW,257,0.0,0.0,83,0.00,,---,0.05,VWS V14.01,2013-09-05 23:55:00,
2013-09-05 20:00:00,58.2,53.4,30.08,WSW,257,0.0,0.0,84,0.00,,---,0.05,VWS V14.01,2013-09-06 00:00:00,
2013-09-05 20:05:00,57.8,53.0,30.08,WSW,257,0.0,0.0,84,0.00,,---,0.05,VWS V14.01,2013-09-06 00:05:00,
2013-09-05 20:10:00,57.4,52.6,30.08,WSW,257,0.0,0.0,84,0.00,,---,0.05,VWS V14.01,2013-09-06 00:10:00,
2013-09-05 20:15:00,57.0,52.2,30.08,WSW,257,0.0,0.0,84,0.00,,---,0.05,VWS V14.01,2013-09-06 00:15:00,
2013-09-05 20:20:00,56.6,51.5,30.08,WSW,257,0.0,0.0,83,0.00,,---,0.05,VWS V14.01,2013-09-06 00:20:00,
2013-09-05 20:25:00,56.2,50.1,30.09,WSW,257,0.0,0.0,80,0.00,,---,0.05,VWS V14.01,2013-09-06 00:25:00,
2013-09-05 20:30:00,55.9,49.2,30.09,WSW,257,0.0,0.0,78,0.00,,---,0.05,VWS V14.01,2013-09-06 00:30:00,
2013-09-05 20:35:00,55.7,48.3,30.09,WSW,257,0.0,0.0,76,0.00,,---,0.05,VWS V14.01,2013-09-06 00:35:00,
2013-09-05 20:40:00,55.7,49.6,30.09,WSW,257,0.0,0.0,80,0.00,,---,0.05,VWS V14.01,2013-09-06 00:40:00,
2013-09-05 20:45:00,55.5,49.1,30.10,WSW,257,0.0,0.0,79,0.00,,---,0.05,VWS V14.01,2013-09-06 00:45:00,
2013-09-05 20:50:00,55.2,48.5,30.10,WSW,257,0.0,0.0,78,0.00,,---,0.05,VWS V14.01,2013-09-06 00:50:00,
2013-09-05 20:55:00,54.9,48.2,30.10,WSW,257,0.0,0.0,78,0.00,,---,0.05,VWS V14.01,2013-09-06 00:55:00,
2013-09-05 21:00:00,54.6,47.5,30.10,WSW,257,0.0,0.0,77,0.00,,---,0.05,VWS V14.01,2013-09-06 01:00:00,
2013-09-05 21:05:00,54.2,47.5,30.10,WSW,257,0.0,0.0,78,0.00,,---,0.05,VWS V14.01,2013-09-06 01:05:00,
2013-09-05 21:10:00,54.0,47.3,30.11,WSW,257,0.0,0.0,78,0.00,,---,0.05,VWS V14.01,2013-09-06 01:10:00,
2013-09-05 21:15:00,53.7,47.0,30.11,WSW,257,0.0,0.0,78,0.00,,---,0.05,VWS V14.01,2013-09-06 01:15:00,
2013-09-05 21:20:00,53.4,47.1,30.11,WSW,257,0.0,0.0,79,0.00,,---,0.05,VWS V14.01,2013-09-06 01:20:00,
2013-09-05 21:25:00,53.1,46.8,30.11,WSW,257,0.0,0.0,79,0.00,,---,0.05,VWS V14.01,2013-09-06 01:25:00,
2013-09-05 21:30:00,52.9,46.6,30.11,WSW,257,0.0,0.0,79,0.00,,---,0.05,VWS V14.01,2013-09-06 01:30:00,
2013-09-05 21:35:00,52.7,46.7,30.11,WSW,257,0.0,0.0,80,0.00,,---,0.05,VWS V14.01,2013-09-06 01:35:00,
2013-09-05 21:40:00,52.4,46.8,30.12,WSW,257,0.0,0.0,81,0.00,,---,0.05,VWS V14.01,2013-09-06 01:40:00,
2013-09-05 21:45:00,52.2,46.5,30.12,WSW,257,0.0,0.0,81,0.00,,---,0.05,VWS V14.01,2013-09-06 01:45:00,
2013-09-05 21:50:00,51.9,46.3,30.12,WSW,257,0.0,0.0,81,0.00,,---,0.05,VWS V14.01,2013-09-06 01:50:00,
2013-09-05 21:55:00,51.8,46.5,30.12,WSW,257,0.0,0.0,82,0.00,,---,0.05,VWS V14.01,2013-09-06 01:55:00,
2013-09-05 22:00:00,51.5,46.2,30.13,WSW,257,0.0,0.0,82,0.00,,---,0.05,VWS V14.01,2013-09-06 02:00:00,
2013-09-05 22:05:00,51.3,46.0,30.13,WSW,257,0.0,0.0,82,0.00,,---,0.05,VWS V14.01,2013-09-06 02:05:00,
2013-09-05 22:10:00,51.1,46.1,30.13,WSW,257,0.0,0.0,83,0.00,,---,0.05,VWS V14.01,2013-09-06 02:10:00,
2013-09-05 22:15:00,50.9,45.6,30.13,WSW,257,0.0,0.0,82,0.00,,---,0.05,VWS V14.01,2013-09-06 02:15:00,
2013-09-05 22:20:00,50.6,45.6,30.13,WSW,257,0.0,0.0,83,0.00,,---,0.05,VWS V14.01,2013-09-06 02:20:00,
2013-09-05 22:25:00,50.5,45.5,30.13,WSW,257,0.0,0.0,83,0.00,,---,0.05,VWS V14.01,2013-09-06 02:25:00,
2013-09-05 22:30:00,50.3,45.7,30.13,WSW,257,0.0,0.0,84,0.00,,---,0.05,VWS V14.01,2013-09-06 02:30:00,
2013-09-05 22:35:00,50.1,45.5,30.13,WSW,257,0.0,0.0,84,0.00,,---,0.05,VWS V14.01,2013-09-06 02:35:00,
2013-09-05 22:40:00,50.0,45.7,30.13,WSW,257,0.0,0.0,85,0.00,,---,0.05,VWS V14.01,2013-09-06 02:40:00,
2013-09-05 22:45:00,49.8,45.5,30.14,WSW,257,0.0,0.0,85,0.00,,---,0.05,VWS V14.01,2013-09-06 02:45:00,
2013-09-05 22:50:00,49.8,46.1,30.14,WSW,257,0.0,0.0,87,0.00,,---,0.05,VWS V14.01,2013-09-06 02:50:00,
2013-09-05 22:55:00,49.7,46.0,30.14,WSW,257,0.0,0.0,87,0.00,,---,0.05,VWS V14.01,2013-09-06 02:55:00,
2013-09-05 23:00:00,49.7,46.3,30.14,WSW,257,0.0,0.0,88,0.00,,---,0.05,VWS V14.01,2013-09-06 03:00:00,
2013-09-05 23:05:00,49.7,46.3,30.15,WSW,257,0.0,0.0,88,0.00,,---,0.05,VWS V14.01,2013-09-06 03:05:00,
2013-09-05 23:10:00,49.6,46.2,30.15,WSW,257,0.0,0.0,88,0.00,,---,0.05,VWS V14.01,2013-09-06 03:10:00,
2013-09-05 23:15:00,49.6,45.6,30.15,WSW,257,0.0,0.0,86,0.00,,---,0.05,VWS V14.01,2013-09-06 03:15:00,
2013-09-05 23:20:00,49.7,45.4,30.15,WSW,257,0.0,0.0,85,0.00,,---,0.05,VWS V14.01,2013-09-06 03:20:00,
2013-09-05 23:25:00,49.8,45.5,30.15,North,355,0.0,2.0,85,0.00,,---,0.05,VWS V14.01,2013-09-06 03:25:00,
2013-09-05 23:30:00,50.0,45.4,30.15,North,355,0.0,0.0,84,0.00,,---,0.05,VWS V14.01,2013-09-06 03:30:00,
2013-09-05 23:35:00,50.1,44.8,30.15,North,355,0.0,1.0,82,0.00,,---,0.05,VWS V14.01,2013-09-06 03:35:00,
2013-09-05 23:40:00,50.4,45.1,30.15,North,359,0.0,2.0,82,0.00,,---,0.05,VWS V14.01,2013-09-06 03:40:00,
2013-09-05 23:45:00,50.5,44.6,30.16,North,359,0.0,0.0,80,0.00,,---,0.05,VWS V14.01,2013-09-06 03:45:00,
2013-09-05 23:50:00,50.7,44.4,30.16,North,359,0.0,1.0,79,0.00,,---,0.05,VWS V14.01,2013-09-06 03:50:00,
2013-09-05 23:55:00,51.2,44.6,30.16,NW,305,0.0,3.0,78,0.00,,---,0.05,VWS V14.01,2013-09-06 03:55:00,